Location: Unspecified
(0.0000°N, 0.0000°E)
Time: 07:56:59
(UTC+00:00)

Transit 4A - Pass Details

Date: 15 December 2018
Orbit: 864 x 980 km, 66.8° (Epoch: 18 March)

Event Time Altitude Azimuth Distance (km) Brightness Sun altitude
Rises 01:53:59 0° 201° (SSW) 3,501 - -52.9°
Reaches altitude 10° 01:56:30 10° 201° (SSW) 2,545 - -52.4°
Maximum altitude 02:02:23 84° 289° (WNW) 878 - -51.3°
Drops below altitude 10° 02:08:08 10° 18° (NNE) 2,494 - -50.2°
Sets 02:10:35 0° 18° (NNE) 3,427 - -49.7°
